DW2659 Weather Reports


time (UTC)temp
F
wind
direction
speed
knots
gust
knots
rain 1hr
in
rain 24hr
in
rain mn
in
humidity
%
barometer
mb
20260904022403 78 355 0.0 0.0 0.00 0.00 0.00 81 1016.3
20260904021904 78 355 0.0 0.0 0.00 0.00 0.00 81 1016.3
20260904021403 78 355 0.0 0.9 0.00 0.00 0.00 81 1016.1
20260904020903 78 355 0.9 1.7 0.00 0.00 0.00 81 1016.1
20260904015903 78 355 0.0 0.0 0.00 0.00 0.00 79 1016.1
20260904015403 79 355 0.0 0.0 0.00 0.00 0.00 78 1016.1
20260904014905 79 355 0.0 0.0 0.00 0.00 0.00 78 1016.1
20260904014403 79 355 0.0 0.0 0.00 0.00 0.00 78 1015.9
20260904013903 79 355 0.0 0.0 0.00 0.00 0.00 77 1015.9
20260904013404 79 355 0.0 0.0 0.00 0.00 0.00 78 1015.9
20260904012903 79 355 0.0 0.0 0.00 0.00 0.00 77 1015.7
20260904012403 79 355 0.0 0.0 0.00 0.00 0.00 76 1015.7
20260904011904 80 355 0.0 0.0 0.00 0.00 0.00 76 1015.7
20260904011403 80 355 0.0 0.9 0.00 0.00 0.00 76 1015.7
20260904010903 80 355 0.0 0.0 0.00 0.00 0.00 75 1015.7
20260904010405 80 355 0.0 0.0 0.00 0.00 0.00 75 1015.7
20260904005904 80 355 0.0 0.0 0.00 0.00 0.00 74 1015.2
20260904005403 80 355 0.0 0.0 0.00 0.00 0.00 74 1015.2
20260904004905 80 355 0.0 0.0 0.00 0.00 0.00 74 1015.2
20260904004403 81 355 0.9 0.9 0.00 0.00 0.00 73 1014.9
20260904003904 81 355 0.0 0.9 0.00 0.00 0.00 73 1014.9
20260904002903 81 355 0.0 0.9 0.00 0.00 0.00 73 1014.9
20260904002403 82 355 0.0 0.9 0.00 0.00 0.00 73 1014.9
20260904001904 82 281 0.0 1.7 0.00 0.00 0.00 72 1014.9
20260904000903 83 245 0.0 0.9 0.00 0.00 0.00 71 1014.8
20260903235903 83 245 0.0 0.0 0.00 0.00 0.00 70 1014.5
20260903235403 84 245 0.0 0.0 0.00 0.00 0.00 70 1014.5
20260903233903 84 245 0.0 0.0 0.00 0.00 0.00 69 1014.5
20260903233405 84 245 0.0 0.0 0.00 0.00 0.00 68 1014.5
20260903232904 85 245 0.0 0.0 0.00 0.00 0.00 68 1014.5
20260903232403 85 245 0.0 0.0 0.00 0.00 0.00 69 1014.5
20260903231905 85 245 0.0 0.0 0.00 0.00 0.00 68 1014.5
20260903230903 85 245 0.0 0.0 0.00 0.00 0.00 68 1014.6
20260903230405 85 245 0.0 0.0 0.00 0.00 0.00 68 1014.6
20260903225903 86 245 0.0 0.0 0.00 0.00 0.00 67 1014.6
20260903225403 86 245 0.0 0.0 0.00 0.00 0.00 68 1014.6
20260903224905 86 245 0.0 0.0 0.00 0.00 0.00 68 1014.6
20260903224403 86 245 0.0 0.0 0.00 0.00 0.00 69 1014.7
20260903223903 87 245 0.0 0.0 0.00 0.00 0.00 67 1014.7
20260903223405 87 245 0.0 0.0 0.00 0.00 0.00 67 1014.7
20260903222903 87 245 0.0 0.9 0.00 0.00 0.00 67 1014.7
20260903222404 88 245 0.9 1.7 0.00 0.00 0.00 66 1014.7
20260903221404 89 245 0.0 0.9 0.00 0.00 0.00 65 1014.5
20260903220404 89 245 0.0 1.7 0.00 0.00 0.00 66 1014.5
20260903215905 90 245 0.0 1.7 0.00 0.00 0.00 67 1014.5
20260903214904 91 242 1.7 2.6 0.00 0.00 0.00 65 1014.5
20260903214404 91 274 0.0 0.9 0.00 0.00 0.00 63 1014.7
20260903213903 92 274 0.9 1.7 0.00 0.00 0.00 63 1014.7
20260903213404 94 274 0.0 1.7 0.00 0.00 0.00 55 1014.8
20260903212904 95 169 1.7 4.3 0.00 0.00 0.00 50 1014.8
20260903212404 96 85 1.7 2.6 0.00 0.00 0.00 49 1014.8
20260903211904 97 5 0.9 2.6 0.00 0.00 0.00 51 1014.8
20260903211405 97 5 1.7 5.2 0.00 0.00 0.00 48 1014.8
20260903210903 98 27 0.9 2.6 0.00 0.00 0.00 51 1014.8
20260903210404 99 30 0.0 0.9 0.00 0.00 0.00 49 1015.0
20260903205904 100 30 0.9 1.7 0.00 0.00 0.00 48 1014.8
20260903205404 101 30 0.0 0.9 0.00 0.00 0.00 46 1014.8
20260903204903 101 34 0.9 1.7 0.00 0.00 0.00 42 1014.8
20260903204404 100 0 1.7 2.6 0.00 0.00 0.00 40 1015.2
20260903203903 101 126 2.6 6.1 0.00 0.00 0.00 40 1015.2
20260903203404 102 46 0.0 1.7 0.00 0.00 0.00 43 1015.2
20260903202905 102 46 0.9 1.7 0.00 0.00 0.00 41 1015.2
20260903202404 101 129 0.9 4.3 0.00 0.00 0.00 41 1015.2
20260903201903 101 355 1.7 2.6 0.00 0.00 0.00 45 1015.2
20260903201406 101 17 0.9 1.7 0.00 0.00 0.00 43 1015.3
20260903200903 101 63 0.9 4.3 0.00 0.00 0.00 44 1015.3
20260903195404 100 98 0.9 2.6 0.00 0.00 0.00 46 1015.6
20260903194904 99 355 0.9 1.7 0.00 0.00 0.00 46 1015.6
20260903194404 98 49 0.0 1.7 0.00 0.00 0.00 49 1016.2
20260903193904 98 146 0.9 1.7 0.00 0.00 0.00 45 1016.2
20260903193404 97 78 0.9 2.6 0.00 0.00 0.00 47 1016.2
20260903192904 98 55 0.9 2.6 0.00 0.00 0.00 47 1016.2
20260903192405 98 49 0.9 2.6 0.00 0.00 0.00 48 1016.2
20260903191403 97 28 1.7 2.6 0.00 0.00 0.00 52 1016.2
20260903190905 96 44 0.9 1.7 0.00 0.00 0.00 50 1016.2
20260903190404 97 44 0.9 1.7 0.00 0.00 0.00 49 1016.2
20260903185904 97 51 0.9 2.6 0.00 0.00 0.00 47 1016.2
20260903185404 99 68 1.7 4.3 0.00 0.00 0.00 47 1016.2
20260903184404 100 333 0.9 2.6 0.00 0.00 0.00 45 1016.4
20260903183403 100 30 0.9 2.6 0.00 0.00 0.00 44 1016.4
20260903182904 101 267 2.6 4.3 0.00 0.00 0.00 42 1016.7
20260903181403 99 17 0.9 2.6 0.00 0.00 0.00 45 1016.7
20260903180905 98 41 0.9 2.6 0.00 0.00 0.00 46 1016.7
20260903180404 98 5 0.9 4.3 0.00 0.00 0.00 46 1016.8
20260903175904 99 244 2.6 4.3 0.00 0.00 0.00 45 1016.8
20260903175405 98 22 1.7 2.6 0.00 0.00 0.00 46 1016.8
20260903174904 98 291 0.9 2.6 0.00 0.00 0.00 47 1016.8
20260903174403 97 31 1.7 6.1 0.00 0.00 0.00 49 1017.1
20260903173905 97 19 0.9 2.6 0.00 0.00 0.00 51 1017.1
20260903173403 97 221 0.9 2.6 0.00 0.00 0.00 50 1017.1
20260903172904 98 247 0.9 2.6 0.00 0.00 0.00 47 1017.2
20260903172405 98 11 0.9 2.6 0.00 0.00 0.00 50 1017.3
20260903171904 98 331 0.0 2.6 0.00 0.00 0.00 49 1017.3
20260903171404 97 42 0.9 2.6 0.00 0.00 0.00 51 1017.6
20260903170404 97 155 0.9 2.6 0.00 0.00 0.00 48 1017.6
20260903165903 96 163 1.7 2.6 0.00 0.00 0.00 46 1017.7
20260903164904 96 87 0.9 2.6 0.00 0.00 0.00 49 1017.7
20260903164404 95 40 0.9 2.6 0.00 0.00 0.00 51 1018.0
20260903163905 95 318 0.9 2.6 0.00 0.00 0.00 53 1018.0
20260903163404 95 132 1.7 2.6 0.00 0.00 0.00 52 1018.0
20260903162904 95 72 1.7 2.6 0.00 0.00 0.00 54 1018.0
20260903162406 94 148 0.0 2.6 0.00 0.00 0.00 54 1018.0
20260903161404 94 173 1.7 2.6 0.00 0.00 0.00 54 1018.1
20260903160905 93 332 0.9 2.6 0.00 0.00 0.00 58 1018.1
20260903155904 94 43 0.9 2.6 0.00 0.00 0.00 55 1018.1
20260903154903 94 46 0.9 2.6 0.00 0.00 0.00 57 1018.1
20260903154404 93 120 0.0 2.6 0.00 0.00 0.00 57 1018.0
20260903153905 93 139 1.7 2.6 0.00 0.00 0.00 57 1018.0
20260903152904 93 16 0.9 2.6 0.00 0.00 0.00 59 1018.0
20260903152405 92 46 1.7 2.6 0.00 0.00 0.00 58 1018.0
20260903151904 92 81 0.9 1.7 0.00 0.00 0.00 56 1018.0
20260903151404 92 30 0.9 1.7 0.00 0.00 0.00 57 1018.1
20260903150404 92 21 0.9 2.6 0.00 0.00 0.00 62 1018.1
20260903145904 91 60 0.9 1.7 0.00 0.00 0.00 62 1018.0
20260903144904 90 91 0.9 1.7 0.00 0.00 0.00 64 1018.0
20260903144404 90 52 0.9 2.6 0.00 0.00 0.00 64 1018.0
20260903143905 90 60 0.9 2.6 0.00 0.00 0.00 63 1018.0
20260903143404 89 102 0.9 2.6 0.00 0.00 0.00 63 1018.0
20260903142904 89 122 1.7 4.3 0.00 0.00 0.00 62 1018.0
20260903142405 88 144 1.7 4.3 0.00 0.00 0.00 62 1018.0
20260903141904 88 152 3.5 5.2 0.00 0.00 0.00 63 1018.0
20260903141402 87 193 0.9 2.6 0.00 0.00 0.00 65 1018.0
20260903140402 86 103 0.9 2.6 0.00 0.00 0.00 70 1018.1
20260903135902 86 194 0.9 4.3 0.00 0.00 0.00 69 1018.1
20260903135403 85 149 1.7 2.6 0.00 0.00 0.00 69 1018.1
20260903134402 84 302 0.0 0.0 0.00 0.00 0.00 75 1018.1
20260903133904 84 349 0.0 0.0 0.00 0.00 0.00 74 1018.1
20260903133402 83 349 0.0 0.0 0.00 0.00 0.00 77 1018.1
20260903132903 82 349 0.0 0.0 0.00 0.00 0.00 78 1018.2
20260903132404 81 349 0.0 0.0 0.00 0.00 0.00 80 1018.2
20260903131902 80 349 0.0 0.0 0.00 0.00 0.00 84 1018.2
20260903131403 79 349 0.0 0.0 0.00 0.00 0.00 86 1018.2
20260903130402 77 349 0.0 0.0 0.00 0.00 0.00 90 1018.2
20260903125902 76 349 0.0 0.0 0.00 0.00 0.00 92 1018.2
20260903125404 75 349 0.0 0.0 0.00 0.00 0.00 93 1018.2
20260903124902 75 349 0.0 0.0 0.00 0.00 0.00 93 1018.2
20260903123904 74 349 0.0 0.0 0.00 0.00 0.00 94 1018.3
20260903123402 73 349 0.0 0.0 0.00 0.00 0.00 94 1018.3
20260903122902 73 349 0.0 0.0 0.00 0.00 0.00 94 1018.2
20260903122404 73 349 0.0 0.0 0.00 0.00 0.00 94 1018.2
20260903121902 73 349 0.0 0.0 0.00 0.00 0.00 93 1018.2
20260903121403 72 349 0.0 0.0 0.00 0.00 0.00 94 1018.2
20260903120903 72 349 0.0 0.0 0.00 0.00 0.00 94 1018.2
20260903120403 72 349 0.0 0.0 0.00 0.00 0.00 94 1018.2
20260903115902 72 349 0.0 0.0 0.00 0.00 0.00 93 1018.1
20260903115403 72 349 0.0 0.0 0.00 0.00 0.00 93 1017.8
20260903114902 72 349 0.0 0.0 0.00 0.00 0.00 93 1017.8
20260903114403 72 349 0.0 0.0 0.00 0.00 0.00 93 1017.8
20260903113903 72 349 0.0 0.0 0.00 0.00 0.00 93 1017.8
20260903113403 72 349 0.0 0.0 0.00 0.00 0.00 93 1017.8
20260903112902 72 349 0.0 0.0 0.00 0.00 0.00 93 1017.7
20260903112403 72 349 0.0 0.0 0.00 0.00 0.00 93 1017.7
20260903111904 72 349 0.0 0.0 0.00 0.00 0.00 93 1017.7
20260903111403 72 349 0.0 0.0 0.00 0.00 0.00 93 1017.5
20260903110403 72 349 0.0 0.0 0.00 0.00 0.00 93 1017.5
20260903105902 72 349 0.0 0.0 0.00 0.00 0.00 92 1017.2
20260903104402 72 349 0.0 0.0 0.00 0.00 0.00 92 1017.2
20260903103903 72 349 0.0 0.0 0.00 0.00 0.00 92 1017.2
20260903102903 72 349 0.0 0.0 0.00 0.00 0.00 92 1017.1
20260903102402 72 349 0.0 0.0 0.00 0.00 0.00 92 1017.1
20260903101904 72 349 0.0 0.0 0.00 0.00 0.00 92 1017.1
20260903101402 72 349 0.0 0.0 0.00 0.00 0.00 92 1017.0
20260903100903 72 349 0.0 0.0 0.00 0.00 0.00 92 1017.0
20260903100405 72 349 0.0 0.0 0.00 0.00 0.00 92 1017.0
20260903095902 72 349 0.0 0.0 0.00 0.00 0.00 92 1017.2
20260903095403 72 349 0.0 0.0 0.00 0.00 0.00 92 1017.2
20260903094904 72 349 0.0 0.0 0.00 0.00 0.00 92 1017.2
20260903094402 72 349 0.0 0.0 0.00 0.00 0.00 92 1017.1
20260903093902 72 349 0.0 0.0 0.00 0.00 0.00 92 1017.1
20260903092903 72 349 0.0 0.0 0.00 0.00 0.00 92 1017.2
20260903092403 72 349 0.0 0.0 0.00 0.00 0.00 92 1017.2
20260903091403 73 349 0.0 0.0 0.00 0.00 0.00 92 1017.1
20260903090903 73 349 0.0 0.0 0.00 0.00 0.00 92 1017.1
20260903090402 73 349 0.0 0.0 0.00 0.00 0.00 92 1017.1
20260903085904 73 349 0.0 0.0 0.00 0.00 0.00 91 1017.2
20260903085402 73 349 0.0 0.0 0.00 0.00 0.00 91 1017.2
20260903084903 73 349 0.0 0.0 0.00 0.00 0.00 91 1017.1
20260903084403 73 349 0.0 0.0 0.00 0.00 0.00 91 1017.2
20260903083903 73 349 0.0 0.0 0.00 0.00 0.00 92 1017.2
20260903083402 73 349 0.0 0.0 0.00 0.00 0.00 91 1017.2
20260903082904 73 349 0.0 0.0 0.00 0.00 0.00 91 1017.2
20260903082403 73 349 0.0 0.0 0.00 0.00 0.00 91 1017.2
20260903081903 73 349 0.0 0.0 0.00 0.00 0.00 91 1017.2
20260903081402 73 349 0.0 0.0 0.00 0.00 0.00 91 1017.0
20260903080904 73 349 0.0 0.0 0.00 0.00 0.00 91 1017.0
20260903080402 73 349 0.0 0.0 0.00 0.00 0.00 91 1017.0
20260903075903 73 349 0.0 0.0 0.00 0.00 0.00 91 1017.1
20260903074902 73 349 0.0 0.0 0.00 0.00 0.00 90 1017.1
20260903074403 73 349 0.0 0.0 0.00 0.00 0.00 90 1016.9
20260903073404 73 349 0.0 0.0 0.00 0.00 0.00 90 1016.9
20260903072902 73 349 0.0 0.0 0.00 0.00 0.00 90 1016.8
20260903072403 73 349 0.0 0.0 0.00 0.00 0.00 90 1016.8
20260903071904 74 349 0.0 0.0 0.00 0.00 0.00 90 1016.8
20260903071402 74 349 0.0 0.0 0.00 0.00 0.00 90 1016.8
20260903070903 74 349 0.0 0.0 0.00 0.00 0.00 90 1016.8
20260903070403 74 349 0.0 0.0 0.00 0.00 0.00 90 1016.8
20260903065404 74 349 0.0 0.0 0.00 0.00 0.00 90 1016.8
20260903064903 74 349 0.0 0.0 0.00 0.00 0.00 90 1016.8
20260903064403 74 349 0.0 0.0 0.00 0.00 0.00 89 1016.9
20260903063903 74 349 0.0 0.0 0.00 0.00 0.00 89 1016.9
20260903063403 74 349 0.0 0.0 0.00 0.00 0.00 89 1016.9
20260903062903 74 349 0.0 0.0 0.00 0.00 0.00 89 1016.9
20260903062405 74 348 0.0 0.0 0.00 0.00 0.00 89 1016.9
20260903061903 74 349 0.0 0.0 0.00 0.00 0.00 89 1016.9
20260903061403 74 349 0.0 0.0 0.00 0.00 0.00 89 1017.0
20260903060902 74 349 0.0 0.0 0.00 0.00 0.00 89 1017.0
20260903055403 74 349 0.0 0.0 0.00 0.00 0.00 88 1017.0
20260903054904 74 349 0.0 0.0 0.00 0.00 0.00 88 1017.0
20260903054403 75 349 0.0 0.0 0.00 0.00 0.00 88 1017.0
20260903053903 75 349 0.0 0.0 0.00 0.00 0.00 88 1017.0
20260903053404 75 349 0.0 0.0 0.00 0.00 0.00 88 1017.0
20260903052903 75 349 0.0 0.0 0.00 0.00 0.00 88 1017.0
20260903052402 75 349 0.0 0.0 0.00 0.00 0.00 88 1017.0
20260903051404 75 349 0.0 0.0 0.00 0.00 0.00 87 1017.0
20260903045904 75 349 0.0 0.0 0.00 0.00 0.00 87 1017.2
20260903045403 75 349 0.0 0.0 0.00 0.00 0.00 86 1017.2
20260903044903 75 349 0.0 0.0 0.00 0.00 0.00 86 1017.2
20260903044403 75 349 0.0 0.0 0.00 0.00 0.00 86 1017.1
20260903043904 75 349 0.0 0.0 0.00 0.00 0.00 86 1017.1
20260903043403 76 349 0.0 0.0 0.00 0.00 0.00 86 1017.1
20260903042903 76 349 0.0 0.0 0.00 0.00 0.00 86 1017.2
20260903042405 76 349 0.0 0.0 0.00 0.00 0.00 85 1017.2
20260903041902 76 349 0.0 0.0 0.00 0.00 0.00 85 1017.1
20260903041403 76 349 0.0 0.0 0.00 0.00 0.00 85 1017.1
20260903040904 76 349 0.0 0.0 0.00 0.00 0.00 85 1017.1
20260903040403 76 349 0.0 0.0 0.00 0.00 0.00 85 1017.1
20260903035903 76 349 0.0 0.0 0.00 0.00 0.00 85 1017.2
20260903034903 76 349 0.0 0.0 0.00 0.00 0.00 84 1017.2
20260903034403 76 349 0.0 0.0 0.00 0.00 0.00 84 1017.3
20260903033904 77 349 0.0 0.0 0.00 0.00 0.00 84 1017.3
20260903033403 77 349 0.0 0.0 0.00 0.00 0.00 83 1017.3
20260903032903 77 349 0.0 0.0 0.00 0.00 0.00 83 1017.3
20260903031903 77 349 0.0 0.0 0.00 0.00 0.00 82 1017.3
20260903031403 77 349 0.0 0.0 0.00 0.00 0.00 82 1017.3
20260903030403 77 349 0.0 0.0 0.00 0.00 0.00 82 1017.4
20260903025903 77 349 0.0 0.0 0.00 0.00 0.00 81 1017.2
20260903025404 78 349 0.0 0.0 0.00 0.00 0.00 81 1017.2
20260903024903 78 349 0.0 0.0 0.00 0.00 0.00 81 1017.2
20260903024404 78 349 0.0 0.0 0.00 0.00 0.00 79 1017.2
20260903023904 78 348 0.0 0.0 0.00 0.00 0.00 79 1017.2
20260903023403 78 349 0.0 0.0 0.00 0.00 0.00 79 1017.2
20260903022903 78 349 0.0 0.0 0.00 0.00 0.00 79 1017.1